Time,TemperatureF,DewpointF,PressureIn,WindDirection,WindDirectionDegrees,WindSpeedMPH,WindSpeedGustMPH,Humidity,HourlyPrecipIn,Conditions,Clouds,dailyrainin,SoftwareType,DateUTC
2013-03-22 00:00:00,29.3,11.5,29.66,NW,311,0.0,0.0,47,0.00,CLR,CLR,0.00,WeatherDisplay:10.36,2013-03-22 04:00:00,
2013-03-22 00:04:00,29.1,11.8,29.66,NW,311,1.2,1.2,48,0.00,CLR,CLR,0.00,WeatherDisplay:10.36,2013-03-22 04:04:00,
2013-03-22 00:09:00,29.1,11.4,29.66,NW,311,0.0,0.0,47,0.00,CLR,CLR,0.00,WeatherDisplay:10.36,2013-03-22 04:09:00,
2013-03-22 00:14:00,29.0,11.7,29.66,NW,311,0.0,0.0,48,0.00,CLR,CLR,0.00,WeatherDisplay:10.36,2013-03-22 04:14:00,
2013-03-22 00:19:00,28.8,11.6,29.66,South,176,1.2,1.2,48,0.00,CLR,CLR,0.00,WeatherDisplay:10.36,2013-03-22 04:19:00,
2013-03-22 00:24:00,28.8,11.6,29.66,South,176,0.0,0.0,48,0.00,CLR,CLR,0.00,WeatherDisplay:10.36,2013-03-22 04:24:00,
2013-03-22 00:29:00,28.7,11.5,29.66,South,176,0.0,0.0,48,0.00,CLR,CLR,0.00,WeatherDisplay:10.36,2013-03-22 04:29:00,
2013-03-22 00:35:00,28.5,12.2,29.66,SSW,192,0.0,0.4,50,0.00,CLR,CLR,0.00,WeatherDisplay:10.36,2013-03-22 04:35:00,
2013-03-22 00:40:00,28.4,12.1,29.66,South,191,0.0,2.0,50,0.00,CLR,CLR,0.00,WeatherDisplay:10.36,2013-03-22 04:40:00,
2013-03-22 00:45:00,28.4,11.6,29.66,SW,223,1.2,0.0,49,0.00,CLR,CLR,0.00,WeatherDisplay:10.36,2013-03-22 04:45:00,
2013-03-22 00:50:00,28.4,11.6,29.66,SW,214,2.0,2.0,49,0.00,CLR,CLR,0.00,WeatherDisplay:10.36,2013-03-22 04:50:00,
2013-03-22 00:56:00,28.5,12.2,29.66,SW,214,2.3,2.3,50,0.00,CLR,CLR,0.00,WeatherDisplay:10.36,2013-03-22 04:56:00,
2013-03-22 01:01:00,28.5,12.2,29.66,SW,219,1.2,1.2,50,0.00,CLR,CLR,0.00,WeatherDisplay:10.36,2013-03-22 05:01:00,
2013-03-22 01:06:00,28.4,11.6,29.67,SW,233,2.3,2.3,49,0.00,CLR,CLR,0.00,WeatherDisplay:10.36,2013-03-22 05:06:00,
2013-03-22 01:11:00,28.4,11.6,29.67,SW,230,0.0,0.0,49,0.00,CLR,CLR,0.00,WeatherDisplay:10.36,2013-03-22 05:11:00,
2013-03-22 01:16:00,28.4,11.6,29.67,SSW,200,0.0,0.0,49,0.00,CLR,CLR,0.00,WeatherDisplay:10.36,2013-03-22 05:16:00,
2013-03-22 01:21:00,28.4,11.6,29.67,SSW,200,1.2,0.0,49,0.00,CLR,CLR,0.00,WeatherDisplay:10.36,2013-03-22 05:21:00,
2013-03-22 01:26:00,28.2,11.9,29.67,SW,214,1.0,1.0,50,0.00,CLR,CLR,0.00,WeatherDisplay:10.36,2013-03-22 05:26:00,
2013-03-22 01:32:00,28.2,11.9,29.67,SW,214,0.0,0.0,50,0.00,CLR,CLR,0.00,WeatherDisplay:10.36,2013-03-22 05:32:00,
2013-03-22 01:37:00,28.1,11.8,29.67,SSW,212,0.0,0.0,50,0.00,CLR,CLR,0.00,WeatherDisplay:10.36,2013-03-22 05:37:00,
2013-03-22 01:43:00,28.1,11.4,29.67,SSW,212,0.0,0.0,49,0.00,CLR,CLR,0.00,WeatherDisplay:10.36,2013-03-22 05:43:00,
2013-03-22 01:48:00,27.9,11.6,29.67,SSW,212,0.0,0.0,50,0.00,CLR,CLR,0.00,WeatherDisplay:10.36,2013-03-22 05:48:00,
2013-03-22 01:53:00,27.8,11.5,29.67,SSW,212,0.0,0.0,50,0.00,CLR,CLR,0.00,WeatherDisplay:10.36,2013-03-22 05:53:00,
2013-03-22 01:58:00,27.6,11.4,29.67,SSW,212,0.0,0.0,50,0.00,CLR,CLR,0.00,WeatherDisplay:10.36,2013-03-22 05:58:00,
2013-03-22 02:03:00,27.5,11.3,29.67,SSW,212,0.0,0.0,50,0.00,CLR,CLR,0.00,WeatherDisplay:10.36,2013-03-22 06:03:00,
2013-03-22 02:08:00,27.5,10.8,29.67,SSW,212,0.0,0.0,49,0.00,CLR,CLR,0.00,WeatherDisplay:10.36,2013-03-22 06:08:00,
2013-03-22 02:13:00,27.3,11.1,29.67,SSW,212,0.0,0.0,50,0.00,CLR,CLR,0.00,WeatherDisplay:10.36,2013-03-22 06:13:00,
2013-03-22 02:18:00,27.3,11.1,29.67,SSW,212,0.0,0.0,50,0.00,CLR,CLR,0.00,WeatherDisplay:10.36,2013-03-22 06:18:00,
2013-03-22 02:24:00,27.3,11.1,29.67,SSW,212,0.0,0.0,50,0.00,CLR,CLR,0.00,WeatherDisplay:10.36,2013-03-22 06:24:00,
2013-03-22 02:29:00,27.3,11.5,29.67,SSW,212,0.0,0.0,51,0.00,CLR,CLR,0.00,WeatherDisplay:10.36,2013-03-22 06:29:00,
2013-03-22 02:34:00,27.3,11.5,29.67,SSW,212,0.0,0.0,51,0.00,CLR,CLR,0.00,WeatherDisplay:10.36,2013-03-22 06:34:00,
2013-03-22 02:39:00,27.3,11.5,29.66,SSW,212,0.0,0.0,51,0.00,CLR,CLR,0.00,WeatherDisplay:10.36,2013-03-22 06:39:00,
2013-03-22 02:45:00,27.3,11.5,29.66,SSW,212,0.0,0.0,51,0.00,CLR,CLR,0.00,WeatherDisplay:10.36,2013-03-22 06:45:00,
2013-03-22 02:50:00,27.5,11.3,29.66,SSW,212,0.0,0.0,50,0.00,CLR,CLR,0.00,WeatherDisplay:10.36,2013-03-22 06:50:00,
2013-03-22 02:55:00,27.5,11.7,29.66,SSW,212,0.0,0.0,51,0.00,CLR,CLR,0.00,WeatherDisplay:10.36,2013-03-22 06:55:00,
2013-03-22 03:00:00,27.5,12.2,29.66,SSW,212,0.0,0.0,52,0.00,CLR,CLR,0.00,WeatherDisplay:10.36,2013-03-22 07:00:00,
2013-03-22 03:06:00,27.5,11.7,29.66,SSW,212,0.0,0.0,51,0.00,CLR,CLR,0.00,WeatherDisplay:10.36,2013-03-22 07:06:00,
2013-03-22 03:11:00,27.5,11.7,29.66,SSW,212,0.0,0.0,51,0.00,CLR,CLR,0.00,WeatherDisplay:10.36,2013-03-22 07:11:00,
2013-03-22 03:16:00,27.3,11.1,29.65,SSW,212,0.0,0.0,50,0.00,CLR,CLR,0.00,WeatherDisplay:10.36,2013-03-22 07:16:00,
2013-03-22 03:21:00,27.2,11.0,29.66,SSW,212,0.0,0.0,50,0.00,CLR,CLR,0.00,WeatherDisplay:10.36,2013-03-22 07:21:00,
2013-03-22 03:27:00,27.2,11.4,29.65,SSW,212,1.0,0.0,51,0.00,CLR,CLR,0.00,WeatherDisplay:10.36,2013-03-22 07:27:00,
2013-03-22 03:32:00,27.2,11.4,29.65,SW,231,1.2,0.0,51,0.00,CLR,CLR,0.00,WeatherDisplay:10.36,2013-03-22 07:32:00,
2013-03-22 03:37:00,27.2,11.4,29.65,SW,232,2.3,2.3,51,0.00,CLR,CLR,0.00,WeatherDisplay:10.36,2013-03-22 07:37:00,
2013-03-22 03:42:00,27.0,11.3,29.65,SW,232,0.0,0.0,51,0.00,CLR,CLR,0.00,WeatherDisplay:10.36,2013-03-22 07:42:00,
2013-03-22 03:47:00,27.0,11.7,29.65,SW,232,1.2,1.2,52,0.00,CLR,CLR,0.00,WeatherDisplay:10.36,2013-03-22 07:47:00,
2013-03-22 03:52:00,27.0,11.7,29.65,SW,231,0.0,0.0,52,0.00,CLR,CLR,0.00,WeatherDisplay:10.36,2013-03-22 07:52:00,
2013-03-22 03:57:00,27.2,12.3,29.65,SW,215,3.5,3.5,53,0.00,CLR,CLR,0.00,WeatherDisplay:10.36,2013-03-22 07:57:00,
2013-03-22 04:02:00,27.2,12.3,29.65,SW,226,3.5,3.5,53,0.00,CLR,CLR,0.00,WeatherDisplay:10.36,2013-03-22 08:02:00,
2013-03-22 04:07:00,27.5,12.6,29.65,SW,225,3.5,3.5,53,0.00,CLR,CLR,0.00,WeatherDisplay:10.36,2013-03-22 08:07:00,
2013-03-22 04:12:00,27.6,12.7,29.65,SW,223,0.0,0.0,53,0.00,CLR,CLR,0.00,WeatherDisplay:10.36,2013-03-22 08:12:00,
2013-03-22 04:17:00,27.6,13.1,29.65,SW,226,2.3,2.3,54,0.00,CLR,CLR,0.00,WeatherDisplay:10.36,2013-03-22 08:17:00,
2013-03-22 04:23:00,27.8,13.3,29.65,South,188,4.0,4.0,54,0.00,CLR,CLR,0.00,WeatherDisplay:10.36,2013-03-22 08:23:00,
2013-03-22 04:28:00,27.8,13.7,29.65,SW,230,2.0,2.0,55,0.00,CLR,CLR,0.00,WeatherDisplay:10.36,2013-03-22 08:28:00,
2013-03-22 04:33:00,27.9,13.8,29.65,SW,219,3.5,3.5,55,0.00,CLR,CLR,0.00,WeatherDisplay:10.36,2013-03-22 08:33:00,
2013-03-22 04:38:00,28.1,14.0,29.65,SSW,193,3.5,3.5,55,0.00,CLR,CLR,0.00,WeatherDisplay:10.36,2013-03-22 08:38:00,
2013-03-22 04:43:00,28.2,14.1,29.65,SW,231,4.0,4.0,55,0.00,CLR,CLR,0.00,WeatherDisplay:10.36,2013-03-22 08:43:00,
2013-03-22 04:48:00,28.2,14.5,29.65,SW,221,3.5,3.5,56,0.00,CLR,CLR,0.00,WeatherDisplay:10.36,2013-03-22 08:48:00,
2013-03-22 04:53:00,28.2,14.5,29.65,SSW,209,3.5,3.5,56,0.00,CLR,CLR,0.00,WeatherDisplay:10.36,2013-03-22 08:53:00,
2013-03-22 04:58:00,28.1,14.8,29.65,SW,225,4.6,4.6,57,0.00,CLR,CLR,0.00,WeatherDisplay:10.36,2013-03-22 08:58:00,
2013-03-22 05:03:00,27.9,14.6,29.65,WSW,248,0.0,0.0,57,0.00,CLR,CLR,0.00,WeatherDisplay:10.36,2013-03-22 09:03:00,
2013-03-22 05:08:00,27.9,14.6,29.65,SW,228,3.5,3.5,57,0.00,CLR,CLR,0.00,WeatherDisplay:10.36,2013-03-22 09:08:00,
2013-03-22 05:13:00,27.8,14.9,29.65,SW,214,2.3,2.3,58,0.00,CLR,CLR,0.00,WeatherDisplay:10.36,2013-03-22 09:13:00,
2013-03-22 05:18:00,27.8,14.9,29.65,SW,230,0.0,0.0,58,0.00,CLR,CLR,0.00,WeatherDisplay:10.36,2013-03-22 09:18:00,
2013-03-22 05:36:00,27.5,15.0,29.65,SSW,211,3.5,3.5,59,0.00,CLR,CLR,0.00,WeatherDisplay:10.36,2013-03-22 09:36:00,
2013-03-22 05:41:00,27.3,14.8,29.65,SSW,211,0.0,0.0,59,0.00,CLR,CLR,0.00,WeatherDisplay:10.36,2013-03-22 09:41:00,
2013-03-22 05:46:00,27.2,15.1,29.65,SSW,211,0.0,0.0,60,0.00,CLR,CLR,0.00,WeatherDisplay:10.36,2013-03-22 09:46:00,
2013-03-22 05:51:00,27.2,15.1,29.66,SSW,209,2.3,2.3,60,0.00,CLR,CLR,0.00,WeatherDisplay:10.36,2013-03-22 09:51:00,
2013-03-22 05:56:00,27.0,15.3,29.66,SW,236,0.0,0.0,61,0.00,CLR,CLR,0.00,WeatherDisplay:10.36,2013-03-22 09:56:00,
2013-03-22 06:01:00,27.0,15.3,29.66,SW,236,0.0,0.0,61,0.00,CLR,CLR,0.00,WeatherDisplay:10.36,2013-03-22 10:01:00,
2013-03-22 06:06:00,26.9,15.6,29.66,SW,226,2.3,2.3,62,0.00,CLR,CLR,0.00,WeatherDisplay:10.36,2013-03-22 10:06:00,
2013-03-22 06:11:00,26.7,15.4,29.66,SW,226,0.0,0.0,62,0.00,CLR,CLR,0.00,WeatherDisplay:10.36,2013-03-22 10:11:00,
2013-03-22 06:16:00,26.7,15.4,29.66,SW,226,1.2,1.2,62,0.00,CLR,CLR,0.00,WeatherDisplay:10.36,2013-03-22 10:16:00,
2013-03-22 06:21:00,26.7,15.4,29.66,SW,226,0.0,0.0,62,0.00,CLR,CLR,0.00,WeatherDisplay:10.36,2013-03-22 10:21:00,
2013-03-22 06:27:00,26.6,15.3,29.66,SW,226,0.0,0.0,62,0.00,CLR,CLR,0.00,WeatherDisplay:10.36,2013-03-22 10:27:00,
2013-03-22 06:32:00,26.6,15.7,29.67,SW,226,0.0,0.0,63,0.00,CLR,CLR,0.00,WeatherDisplay:10.36,2013-03-22 10:32:00,
2013-03-22 06:37:00,26.6,15.7,29.67,SW,226,0.0,0.0,63,0.00,CLR,CLR,0.00,WeatherDisplay:10.36,2013-03-22 10:37:00,
2013-03-22 06:42:00,26.4,15.5,29.67,SW,226,0.0,0.0,63,0.00,CLR,CLR,0.00,WeatherDisplay:10.36,2013-03-22 10:42:00,
2013-03-22 06:47:00,26.4,15.9,29.67,SW,226,0.0,0.0,64,0.00,CLR,CLR,0.00,WeatherDisplay:10.36,2013-03-22 10:47:00,
2013-03-22 06:53:00,26.4,15.9,29.68,SW,226,1.2,1.2,64,0.00,CLR,CLR,0.00,WeatherDisplay:10.36,2013-03-22 10:53:00,
2013-03-22 06:58:00,26.4,15.9,29.68,SW,226,0.0,0.0,64,0.00,CLR,CLR,0.00,WeatherDisplay:10.36,2013-03-22 10:58:00,
2013-03-22 07:03:00,26.4,15.9,29.68,SW,226,0.0,0.0,64,0.00,CLR,CLR,0.00,WeatherDisplay:10.36,2013-03-22 11:03:00,
2013-03-22 07:08:00,26.4,15.9,29.68,SW,226,1.0,1.0,64,0.00,CLR,CLR,0.00,WeatherDisplay:10.36,2013-03-22 11:08:00,
2013-03-22 07:13:00,26.6,16.1,29.69,SW,226,1.2,1.2,64,0.00,CLR,CLR,0.00,WeatherDisplay:10.36,2013-03-22 11:13:00,
2013-03-22 07:19:00,26.7,16.1,29.68,SW,229,2.3,0.0,64,0.00,CLR,CLR,0.00,WeatherDisplay:10.36,2013-03-22 11:19:00,
2013-03-22 07:24:00,26.9,16.3,29.69,SSE,166,1.2,1.2,64,0.00,CLR,CLR,0.00,WeatherDisplay:10.36,2013-03-22 11:24:00,
2013-03-22 07:29:00,27.0,16.1,29.69,SSW,201,2.3,2.3,63,0.00,CLR,CLR,0.00,WeatherDisplay:10.36,2013-03-22 11:29:00,
2013-03-22 07:34:00,27.0,16.1,29.69,SSW,212,3.0,3.0,63,0.00,CLR,CLR,0.00,WeatherDisplay:10.36,2013-03-22 11:34:00,
2013-03-22 07:39:00,27.2,16.3,29.69,SSW,212,2.3,2.3,63,0.00,CLR,CLR,0.00,WeatherDisplay:10.36,2013-03-22 11:39:00,
2013-03-22 07:45:00,27.5,16.2,29.69,WSW,240,1.2,0.0,62,0.00,CLR,CLR,0.00,WeatherDisplay:10.36,2013-03-22 11:45:00,
2013-03-22 07:50:00,27.6,16.3,29.69,WSW,240,1.2,0.0,62,0.00,CLR,CLR,0.00,WeatherDisplay:10.36,2013-03-22 11:50:00,
2013-03-22 07:55:00,27.9,16.6,29.70,WSW,242,0.0,2.0,62,0.00,CLR,CLR,0.00,WeatherDisplay:10.36,2013-03-22 11:55:00,
2013-03-22 08:00:00,28.1,16.7,29.70,WSW,240,0.0,2.0,62,0.00,CLR,CLR,0.00,WeatherDisplay:10.36,2013-03-22 12:00:00,
2013-03-22 08:05:00,28.2,16.5,29.70,SSW,211,0.0,5.0,61,0.00,CLR,CLR,0.00,WeatherDisplay:10.36,2013-03-22 12:05:00,
2013-03-22 08:10:00,28.5,16.3,29.70,SSW,198,3.0,6.0,60,0.00,CLR,CLR,0.00,WeatherDisplay:10.36,2013-03-22 12:10:00,
2013-03-22 08:15:00,28.7,16.6,29.70,SSW,213,1.2,0.0,60,0.00,CLR,CLR,0.00,WeatherDisplay:10.36,2013-03-22 12:15:00,
2013-03-22 08:20:00,29.0,16.4,29.70,SSW,204,3.5,3.5,59,0.00,CLR,CLR,0.00,WeatherDisplay:10.36,2013-03-22 12:20:00,
2013-03-22 08:25:00,29.1,16.5,29.70,NW,304,2.0,2.0,59,0.00,CLR,CLR,0.00,WeatherDisplay:10.36,2013-03-22 12:25:00,
2013-03-22 08:30:00,29.3,16.3,29.70,NW,325,1.2,1.2,58,0.00,CLR,CLR,0.00,WeatherDisplay:10.36,2013-03-22 12:30:00,
2013-03-22 08:35:00,29.4,16.4,29.70,WNW,299,1.2,1.2,58,0.00,CLR,CLR,0.00,WeatherDisplay:10.36,2013-03-22 12:35:00,
2013-03-22 08:40:00,29.7,16.7,29.70,SSE,156,2.0,2.0,58,0.00,CLR,CLR,0.00,WeatherDisplay:10.36,2013-03-22 12:40:00,
2013-03-22 08:45:00,29.8,16.4,29.70,ESE,123,4.6,4.6,57,0.00,CLR,CLR,0.00,WeatherDisplay:10.36,2013-03-22 12:45:00,
2013-03-22 08:50:00,30.0,16.2,29.71,WSW,255,2.3,0.0,56,0.00,CLR,CLR,0.00,WeatherDisplay:10.36,2013-03-22 12:50:00,
2013-03-22 08:55:00,30.1,15.9,29.71,NNW,333,3.5,3.5,55,0.00,CLR,CLR,0.00,WeatherDisplay:10.36,2013-03-22 12:55:00,
2013-03-22 09:01:00,30.3,15.6,29.70,WNW,300,2.3,2.3,54,0.00,CLR,CLR,0.00,WeatherDisplay:10.36,2013-03-22 13:01:00,
2013-03-22 09:06:00,30.6,15.5,29.70,NW,316,3.5,3.5,53,0.00,CLR,CLR,0.00,WeatherDisplay:10.36,2013-03-22 13:06:00,
2013-03-22 09:11:00,30.7,16.0,29.70,South,188,1.2,1.2,54,0.00,CLR,CLR,0.00,WeatherDisplay:10.36,2013-03-22 13:11:00,
2013-03-22 09:16:00,31.0,15.8,29.70,WSW,257,1.0,1.0,53,0.00,CLR,CLR,0.00,WeatherDisplay:10.36,2013-03-22 13:16:00,
2013-03-22 09:22:00,31.2,15.6,29.71,NW,313,4.6,4.6,52,0.00,CLR,CLR,0.00,WeatherDisplay:10.36,2013-03-22 13:22:00,
2013-03-22 09:27:00,31.3,15.7,29.70,WNW,302,3.5,3.5,52,0.00,CLR,CLR,0.00,WeatherDisplay:10.36,2013-03-22 13:27:00,
2013-03-22 09:32:00,31.5,15.9,29.70,NNW,329,3.5,3.5,52,0.00,CLR,CLR,0.00,WeatherDisplay:10.36,2013-03-22 13:32:00,
2013-03-22 09:37:00,31.6,15.5,29.70,West,262,2.3,2.3,51,0.00,CLR,CLR,0.00,WeatherDisplay:10.36,2013-03-22 13:37:00,
2013-03-22 09:42:00,31.9,15.8,29.71,WNW,294,3.5,3.5,51,0.00,CLR,CLR,0.00,WeatherDisplay:10.36,2013-03-22 13:42:00,
2013-03-22 09:47:00,32.1,16.0,29.71,WNW,301,3.5,3.5,51,0.00,CLR,CLR,0.00,WeatherDisplay:10.36,2013-03-22 13:47:00,
2013-03-22 09:52:00,32.2,15.2,29.71,West,259,4.6,4.6,49,0.00,CLR,CLR,0.00,WeatherDisplay:10.36,2013-03-22 13:52:00,
2013-03-22 09:58:00,32.2,15.6,29.71,WNW,297,5.0,5.0,50,0.00,CLR,CLR,0.00,WeatherDisplay:10.36,2013-03-22 13:58:00,
2013-03-22 10:03:00,32.2,15.2,29.71,NNW,328,3.5,3.5,49,0.00,CLR,CLR,0.00,WeatherDisplay:10.36,2013-03-22 14:03:00,
2013-03-22 10:08:00,32.4,15.3,29.71,NW,304,5.8,5.8,49,0.00,CLR,CLR,0.00,WeatherDisplay:10.36,2013-03-22 14:08:00,
2013-03-22 10:13:00,32.7,15.1,29.71,West,267,3.5,3.5,48,0.00,CLR,CLR,0.00,WeatherDisplay:10.36,2013-03-22 14:13:00,
2013-03-22 10:18:00,32.9,15.3,29.71,South,182,4.0,4.0,48,0.00,CLR,CLR,0.00,WeatherDisplay:10.36,2013-03-22 14:18:00,
2013-03-22 10:23:00,33.4,15.8,29.71,West,259,3.5,3.5,48,0.00,CLR,CLR,0.00,WeatherDisplay:10.36,2013-03-22 14:23:00,
2013-03-22 10:28:00,33.7,15.6,29.71,NW,307,4.0,4.0,47,0.00,CLR,CLR,0.00,WeatherDisplay:10.36,2013-03-22 14:28:00,
2013-03-22 10:33:00,34.0,15.4,29.71,NW,321,4.0,4.0,46,0.00,CLR,CLR,0.00,WeatherDisplay:10.36,2013-03-22 14:33:00,
2013-03-22 10:38:00,34.4,15.2,29.71,SSW,208,3.5,3.5,45,0.00,CLR,CLR,0.00,WeatherDisplay:10.36,2013-03-22 14:38:00,
2013-03-22 10:44:00,34.4,15.2,29.71,NNW,332,5.8,5.8,45,0.00,CLR,CLR,0.00,WeatherDisplay:10.36,2013-03-22 14:44:00,
2013-03-22 10:49:00,34.6,15.4,29.71,WSW,251,3.5,3.5,45,0.00,CLR,CLR,0.00,WeatherDisplay:10.36,2013-03-22 14:49:00,
2013-03-22 10:54:00,34.7,15.5,29.71,WNW,291,5.8,5.8,45,0.00,CLR,CLR,0.00,WeatherDisplay:10.36,2013-03-22 14:54:00,
2013-03-22 10:59:00,35.2,16.0,29.71,NNW,328,3.5,3.5,45,0.00,CLR,CLR,0.00,WeatherDisplay:10.36,2013-03-22 14:59:00,
2013-03-22 11:04:00,35.2,16.0,29.71,West,272,4.0,4.0,45,0.00,CLR,CLR,0.00,WeatherDisplay:10.36,2013-03-22 15:04:00,
2013-03-22 11:10:00,34.7,15.0,29.71,WSW,248,3.5,3.5,44,0.00,CLR,CLR,0.00,WeatherDisplay:10.36,2013-03-22 15:10:00,
2013-03-22 11:15:00,35.2,16.0,29.72,WSW,251,1.0,5.0,45,0.00,CLR,CLR,0.00,WeatherDisplay:10.36,2013-03-22 15:15:00,
2013-03-22 11:20:00,36.0,16.2,29.72,WNW,287,3.5,3.5,44,0.00,CLR,CLR,0.00,WeatherDisplay:10.36,2013-03-22 15:20:00,
2013-03-22 11:25:00,36.3,15.4,29.72,West,278,2.0,6.0,42,0.00,CLR,CLR,0.00,WeatherDisplay:10.36,2013-03-22 15:25:00,
2013-03-22 11:30:00,36.2,15.8,29.72,WSW,240,3.5,3.5,43,0.00,CLR,CLR,0.00,WeatherDisplay:10.36,2013-03-22 15:30:00,
2013-03-22 11:35:00,35.9,15.5,29.72,WSW,248,1.0,4.0,43,0.00,CLR,CLR,0.00,WeatherDisplay:10.36,2013-03-22 15:35:00,
2013-03-22 11:40:00,36.0,15.6,29.72,WSW,244,3.5,3.5,43,0.00,CLR,CLR,0.00,WeatherDisplay:10.36,2013-03-22 15:40:00,
2013-03-22 11:45:00,36.2,15.8,29.72,SW,230,1.0,12.0,43,0.00,CLR,CLR,0.00,WeatherDisplay:10.36,2013-03-22 15:45:00,
2013-03-22 11:50:00,35.9,15.5,29.71,WSW,237,1.0,10.0,43,0.00,CLR,CLR,0.00,WeatherDisplay:10.36,2013-03-22 15:50:00,
2013-03-22 11:55:00,35.6,14.7,29.71,WSW,245,4.6,4.6,42,0.00,CLR,CLR,0.00,WeatherDisplay:10.36,2013-03-22 15:55:00,
2013-03-22 12:00:00,35.6,15.8,29.71,NW,311,4.0,4.0,44,0.00,CLR,CLR,0.00,WeatherDisplay:10.36,2013-03-22 16:00:00,
2013-03-22 12:05:00,36.0,15.6,29.71,West,274,3.0,3.0,43,0.00,CLR,CLR,0.00,WeatherDisplay:10.36,2013-03-22 16:05:00,
2013-03-22 12:10:00,36.2,15.3,29.71,WNW,291,3.5,3.5,42,0.00,CLR,CLR,0.00,WeatherDisplay:10.36,2013-03-22 16:10:00,
2013-03-22 12:16:00,36.2,15.3,29.71,NW,307,4.6,5.3,42,0.00,CLR,CLR,0.00,WeatherDisplay:10.36,2013-03-22 16:16:00,
2013-03-22 12:21:00,36.0,15.1,29.71,WNW,302,3.0,3.0,42,0.00,CLR,CLR,0.00,WeatherDisplay:10.36,2013-03-22 16:21:00,
2013-03-22 12:26:00,36.8,16.4,29.71,WNW,287,6.0,6.0,43,0.00,CLR,CLR,0.00,WeatherDisplay:10.36,2013-03-22 16:26:00,
2013-03-22 12:32:00,37.6,15.4,29.71,NW,322,3.5,3.5,40,0.00,CLR,CLR,0.00,WeatherDisplay:10.36,2013-03-22 16:32:00,
2013-03-22 12:37:00,38.2,16.0,29.71,West,264,3.5,3.5,40,0.00,CLR,CLR,0.00,WeatherDisplay:10.36,2013-03-22 16:37:00,
2013-03-22 12:42:00,38.5,16.2,29.71,WSW,245,4.6,4.6,40,0.00,CLR,CLR,0.00,WeatherDisplay:10.36,2013-03-22 16:42:00,
2013-03-22 12:47:00,38.9,16.0,29.71,WNW,298,9.2,9.2,39,0.00,CLR,CLR,0.00,WeatherDisplay:10.36,2013-03-22 16:47:00,
2013-03-22 12:52:00,39.5,16.0,29.71,NW,312,4.0,4.0,38,0.00,CLR,CLR,0.00,WeatherDisplay:10.36,2013-03-22 16:52:00,
2013-03-22 12:57:00,39.1,16.2,29.71,WNW,288,5.0,5.0,39,0.00,CLR,CLR,0.00,WeatherDisplay:10.36,2013-03-22 16:57:00,
2013-03-22 13:02:00,38.8,15.9,29.71,WSW,245,11.5,11.5,39,0.00,CLR,CLR,0.00,WeatherDisplay:10.36,2013-03-22 17:02:00,
2013-03-22 13:07:00,38.6,15.7,29.71,WNW,295,3.5,3.5,39,0.00,CLR,CLR,0.00,WeatherDisplay:10.36,2013-03-22 17:07:00,
2013-03-22 13:12:00,38.2,16.5,29.71,WNW,300,5.8,5.8,41,0.00,CLR,CLR,0.00,WeatherDisplay:10.36,2013-03-22 17:12:00,
2013-03-22 13:17:00,37.9,16.3,29.71,NW,315,3.0,3.0,41,0.00,CLR,CLR,0.00,WeatherDisplay:10.36,2013-03-22 17:17:00,
2013-03-22 13:22:00,37.9,16.3,29.70,SW,229,2.3,2.3,41,0.00,CLR,CLR,0.00,WeatherDisplay:10.36,2013-03-22 17:22:00,
2013-03-22 13:27:00,38.5,16.8,29.70,NNW,328,6.0,6.0,41,0.00,CLR,CLR,0.00,WeatherDisplay:10.36,2013-03-22 17:27:00,
2013-03-22 13:32:00,38.5,16.2,29.70,West,269,3.5,3.5,40,0.00,CLR,CLR,0.00,WeatherDisplay:10.36,2013-03-22 17:32:00,
2013-03-22 13:37:00,37.9,16.3,29.70,West,269,9.2,9.2,41,0.00,CLR,CLR,0.00,WeatherDisplay:10.36,2013-03-22 17:37:00,
2013-03-22 13:42:00,37.5,15.9,29.70,West,267,4.6,4.6,41,0.00,CLR,CLR,0.00,WeatherDisplay:10.36,2013-03-22 17:42:00,
2013-03-22 13:48:00,37.2,16.2,29.70,SW,220,6.9,6.9,42,0.00,CLR,CLR,0.00,WeatherDisplay:10.36,2013-03-22 17:48:00,
2013-03-22 13:53:00,37.3,16.8,29.70,NW,316,5.8,5.8,43,0.00,CLR,CLR,0.00,WeatherDisplay:10.36,2013-03-22 17:53:00,
2013-03-22 13:58:00,37.5,16.5,29.70,SW,221,6.9,6.9,42,0.00,CLR,CLR,0.00,WeatherDisplay:10.36,2013-03-22 17:58:00,
2013-03-22 14:03:00,37.5,15.9,29.70,SW,219,11.5,11.5,41,0.00,CLR,CLR,0.00,WeatherDisplay:10.36,2013-03-22 18:03:00,
2013-03-22 14:09:00,37.3,16.3,29.70,West,279,3.5,3.5,42,0.00,CLR,CLR,0.00,WeatherDisplay:10.36,2013-03-22 18:09:00,
2013-03-22 14:14:00,37.3,16.3,29.70,WSW,255,2.3,2.3,42,0.00,CLR,CLR,0.00,WeatherDisplay:10.36,2013-03-22 18:14:00,
2013-03-22 14:19:00,37.3,16.3,29.69,WSW,249,2.3,2.3,42,0.00,CLR,CLR,0.00,WeatherDisplay:10.36,2013-03-22 18:19:00,
2013-03-22 14:24:00,37.5,15.9,29.69,WSW,251,3.5,3.5,41,0.00,CLR,CLR,0.00,WeatherDisplay:10.36,2013-03-22 18:24:00,
2013-03-22 14:29:00,37.6,16.5,29.69,NW,322,4.6,4.6,42,0.00,CLR,CLR,0.00,WeatherDisplay:10.36,2013-03-22 18:29:00,
2013-03-22 14:34:00,37.6,16.5,29.69,West,259,3.5,3.5,42,0.00,CLR,CLR,0.00,WeatherDisplay:10.36,2013-03-22 18:34:00,
2013-03-22 14:40:00,37.8,17.3,29.69,NW,304,3.5,3.5,43,0.00,CLR,CLR,0.00,WeatherDisplay:10.36,2013-03-22 18:40:00,
2013-03-22 14:45:00,37.9,15.7,29.69,WNW,282,2.0,9.0,40,0.00,CLR,CLR,0.00,WeatherDisplay:10.36,2013-03-22 18:45:00,
2013-03-22 14:50:00,38.2,16.0,29.69,NW,325,4.6,4.6,40,0.00,CLR,CLR,0.00,WeatherDisplay:10.36,2013-03-22 18:50:00,
2013-03-22 14:55:00,39.3,16.4,29.69,West,281,2.0,7.0,39,0.00,CLR,CLR,0.00,WeatherDisplay:10.36,2013-03-22 18:55:00,
2013-03-22 15:00:00,40.8,17.1,29.69,WNW,288,1.0,7.0,38,0.00,CLR,CLR,0.00,WeatherDisplay:10.36,2013-03-22 19:00:00,
2013-03-22 15:05:00,40.8,16.5,29.69,West,260,3.0,10.0,37,0.00,CLR,CLR,0.00,WeatherDisplay:10.36,2013-03-22 19:05:00,
2013-03-22 15:10:00,39.8,16.2,29.69,West,281,3.5,3.5,38,0.00,CLR,CLR,0.00,WeatherDisplay:10.36,2013-03-22 19:10:00,
2013-03-22 15:15:00,39.2,16.9,29.69,NW,316,5.8,5.8,40,0.00,CLR,CLR,0.00,WeatherDisplay:10.36,2013-03-22 19:15:00,
2013-03-22 15:20:00,39.3,17.0,29.69,West,264,2.0,5.0,40,0.00,CLR,CLR,0.00,WeatherDisplay:10.36,2013-03-22 19:20:00,
2013-03-22 15:25:00,39.9,16.3,29.69,SW,236,3.0,9.0,38,0.00,CLR,CLR,0.00,WeatherDisplay:10.36,2013-03-22 19:25:00,
2013-03-22 15:30:00,39.8,16.8,29.69,WSW,249,2.0,4.0,39,0.00,CLR,CLR,0.00,WeatherDisplay:10.36,2013-03-22 19:30:00,
2013-03-22 15:35:00,39.6,16.0,29.70,SW,231,9.0,9.0,38,0.00,CLR,CLR,0.00,WeatherDisplay:10.36,2013-03-22 19:35:00,
2013-03-22 15:40:00,39.2,16.3,29.70,West,266,3.5,3.5,39,0.00,CLR,CLR,0.00,WeatherDisplay:10.36,2013-03-22 19:40:00,
2013-03-22 15:45:00,38.9,16.0,29.70,SW,231,11.5,11.5,39,0.00,CLR,CLR,0.00,WeatherDisplay:10.36,2013-03-22 19:45:00,
2013-03-22 15:50:00,38.6,15.7,29.70,SW,226,11.5,11.5,39,0.00,CLR,CLR,0.00,WeatherDisplay:10.36,2013-03-22 19:50:00,
2013-03-22 15:56:00,38.6,16.3,29.70,SSW,210,3.0,3.0,40,0.00,CLR,CLR,0.00,WeatherDisplay:10.36,2013-03-22 19:56:00,
2013-03-22 16:01:00,38.6,16.3,29.70,South,186,3.5,0.0,40,0.00,CLR,CLR,0.00,WeatherDisplay:10.36,2013-03-22 20:01:00,
2013-03-22 16:06:00,38.8,15.9,29.70,West,277,4.6,4.6,39,0.00,CLR,CLR,0.00,WeatherDisplay:10.36,2013-03-22 20:06:00,
2013-03-22 16:12:00,38.9,16.6,29.70,WNW,300,3.5,3.5,40,0.00,CLR,CLR,0.00,WeatherDisplay:10.36,2013-03-22 20:12:00,
2013-03-22 16:17:00,39.1,16.2,29.70,South,188,6.9,6.9,39,0.00,CLR,CLR,0.00,WeatherDisplay:10.36,2013-03-22 20:17:00,
2013-03-22 16:22:00,38.9,16.0,29.70,WSW,240,4.6,4.6,39,0.00,CLR,CLR,0.00,WeatherDisplay:10.36,2013-03-22 20:22:00,
2013-03-22 16:28:00,39.2,15.7,29.70,West,267,6.9,6.9,38,0.00,CLR,CLR,0.00,WeatherDisplay:10.36,2013-03-22 20:28:00,
2013-03-22 16:33:00,39.3,16.4,29.70,SW,217,5.8,5.8,39,0.00,CLR,CLR,0.00,WeatherDisplay:10.36,2013-03-22 20:33:00,
2013-03-22 16:38:00,39.6,16.0,29.70,SW,225,4.6,4.6,38,0.00,CLR,CLR,0.00,WeatherDisplay:10.36,2013-03-22 20:38:00,
2013-03-22 16:43:00,39.5,16.0,29.70,SSE,165,7.0,7.0,38,0.00,CLR,CLR,0.00,WeatherDisplay:10.36,2013-03-22 20:43:00,
2013-03-22 16:48:00,39.3,16.4,29.70,West,271,2.3,2.3,39,0.00,CLR,CLR,0.00,WeatherDisplay:10.36,2013-03-22 20:48:00,
2013-03-22 16:53:00,39.3,16.4,29.70,West,275,4.6,4.6,39,0.00,CLR,CLR,0.00,WeatherDisplay:10.36,2013-03-22 20:53:00,
2013-03-22 16:59:00,39.3,16.4,29.70,South,191,3.5,3.5,39,0.00,CLR,CLR,0.00,WeatherDisplay:10.36,2013-03-22 20:59:00,
2013-03-22 17:04:00,39.2,16.9,29.70,West,270,3.5,3.5,40,0.00,CLR,CLR,0.00,WeatherDisplay:10.36,2013-03-22 21:04:00,
2013-03-22 17:09:00,38.9,16.6,29.70,West,276,4.6,4.6,40,0.00,CLR,CLR,0.00,WeatherDisplay:10.36,2013-03-22 21:09:00,
2013-03-22 17:14:00,38.8,15.9,29.70,WSW,241,5.8,5.8,39,0.00,CLR,CLR,0.00,WeatherDisplay:10.36,2013-03-22 21:14:00,
2013-03-22 17:19:00,38.9,16.6,29.70,NNW,337,3.5,3.5,40,0.00,CLR,CLR,0.00,WeatherDisplay:10.36,2013-03-22 21:19:00,
2013-03-22 17:24:00,39.1,16.8,29.71,NW,304,9.2,9.2,40,0.00,CLR,CLR,0.00,WeatherDisplay:10.36,2013-03-22 21:24:00,
2013-03-22 17:29:00,39.1,16.8,29.71,West,261,2.3,2.3,40,0.00,CLR,CLR,0.00,WeatherDisplay:10.36,2013-03-22 21:29:00,
2013-03-22 17:34:00,39.2,16.9,29.71,SW,231,4.6,4.6,40,0.00,CLR,CLR,0.00,WeatherDisplay:10.36,2013-03-22 21:34:00,
2013-03-22 17:39:00,39.3,17.0,29.71,SSW,202,3.5,3.5,40,0.00,CLR,CLR,0.00,WeatherDisplay:10.36,2013-03-22 21:39:00,
2013-03-22 17:45:00,39.3,16.4,29.71,West,266,4.6,4.6,39,0.00,CLR,CLR,0.00,WeatherDisplay:10.36,2013-03-22 21:45:00,
2013-03-22 17:50:00,39.2,16.9,29.71,SW,235,3.5,3.5,40,0.00,CLR,CLR,0.00,WeatherDisplay:10.36,2013-03-22 21:50:00,
2013-03-22 17:55:00,39.2,16.3,29.71,SW,230,8.1,8.1,39,0.00,CLR,CLR,0.00,WeatherDisplay:10.36,2013-03-22 21:55:00,
2013-03-22 18:00:00,39.2,15.7,29.72,NNE,18,5.0,5.0,38,0.00,CLR,CLR,0.00,WeatherDisplay:10.36,2013-03-22 22:00:00,
2013-03-22 18:05:00,39.1,16.8,29.72,WSW,245,4.0,4.0,40,0.00,CLR,CLR,0.00,WeatherDisplay:10.36,2013-03-22 22:05:00,
2013-03-22 18:10:00,38.9,16.0,29.73,NW,319,6.9,6.9,39,0.00,CLR,CLR,0.00,WeatherDisplay:10.36,2013-03-22 22:10:00,
2013-03-22 18:15:00,38.9,16.6,29.72,SW,232,4.6,4.6,40,0.00,CLR,CLR,0.00,WeatherDisplay:10.36,2013-03-22 22:15:00,
2013-03-22 18:21:00,38.8,17.1,29.73,West,281,5.0,5.0,41,0.00,CLR,CLR,0.00,WeatherDisplay:10.36,2013-03-22 22:21:00,
2013-03-22 18:26:00,38.8,16.5,29.73,West,259,3.5,3.5,40,0.00,CLR,CLR,0.00,WeatherDisplay:10.36,2013-03-22 22:26:00,
2013-03-22 18:31:00,38.6,16.9,29.73,West,275,2.3,2.3,41,0.00,CLR,CLR,0.00,WeatherDisplay:10.36,2013-03-22 22:31:00,
2013-03-22 18:37:00,38.6,16.3,29.73,WNW,289,2.3,2.3,40,0.00,CLR,CLR,0.00,WeatherDisplay:10.36,2013-03-22 22:37:00,
2013-03-22 18:42:00,38.5,16.8,29.73,West,273,3.5,3.5,41,0.00,CLR,CLR,0.00,WeatherDisplay:10.36,2013-03-22 22:42:00,
2013-03-22 18:47:00,38.5,16.8,29.73,NW,313,3.5,3.5,41,0.00,CLR,CLR,0.00,WeatherDisplay:10.36,2013-03-22 22:47:00,
2013-03-22 18:53:00,38.3,17.2,29.74,SW,231,7.0,7.0,42,0.00,CLR,CLR,0.00,WeatherDisplay:10.36,2013-03-22 22:53:00,
2013-03-22 18:58:00,38.3,16.6,29.74,WSW,240,3.0,3.0,41,0.00,CLR,CLR,0.00,WeatherDisplay:10.36,2013-03-22 22:58:00,
2013-03-22 19:03:00,38.2,16.5,29.74,WNW,283,3.5,3.5,41,0.00,CLR,CLR,0.00,WeatherDisplay:10.36,2013-03-22 23:03:00,
2013-03-22 19:08:00,38.0,16.4,29.74,WSW,242,3.5,3.5,41,0.00,CLR,CLR,0.00,WeatherDisplay:10.36,2013-03-22 23:08:00,
2013-03-22 19:13:00,37.9,16.8,29.74,WNW,285,0.0,0.0,42,0.00,CLR,CLR,0.00,WeatherDisplay:10.36,2013-03-22 23:13:00,
2013-03-22 19:18:00,37.6,17.1,29.75,WSW,244,2.3,2.3,43,0.00,CLR,CLR,0.00,WeatherDisplay:10.36,2013-03-22 23:18:00,
2013-03-22 19:23:00,37.5,17.0,29.75,South,181,5.0,5.0,43,0.00,CLR,CLR,0.00,WeatherDisplay:10.36,2013-03-22 23:23:00,
2013-03-22 19:28:00,37.3,16.8,29.75,WSW,257,3.5,3.5,43,0.00,CLR,CLR,0.00,WeatherDisplay:10.36,2013-03-22 23:28:00,
2013-03-22 19:34:00,37.2,16.7,29.75,WSW,257,1.2,1.2,43,0.00,CLR,CLR,0.00,WeatherDisplay:10.36,2013-03-22 23:34:00,
2013-03-22 19:39:00,37.0,17.1,29.76,WSW,257,1.0,0.0,44,0.00,CLR,CLR,0.00,WeatherDisplay:10.36,2013-03-22 23:39:00,
2013-03-22 19:44:00,36.9,17.0,29.76,WSW,257,2.3,0.0,44,0.00,CLR,CLR,0.00,WeatherDisplay:10.36,2013-03-22 23:44:00,
2013-03-22 19:49:00,36.9,17.5,29.76,WSW,245,0.0,0.0,45,0.00,CLR,CLR,0.00,WeatherDisplay:10.36,2013-03-22 23:49:00,
2013-03-22 19:54:00,36.9,17.0,29.77,SW,233,4.6,0.0,44,0.00,CLR,CLR,0.00,WeatherDisplay:10.36,2013-03-22 23:54:00,
2013-03-22 19:59:00,36.9,17.5,29.77,SW,234,2.3,0.0,45,0.00,CLR,CLR,0.00,WeatherDisplay:10.36,2013-03-22 23:59:00,
2013-03-22 20:05:00,36.8,17.4,29.77,SW,227,3.5,3.5,45,0.00,CLR,CLR,0.00,WeatherDisplay:10.36,2013-03-23 00:05:00,
2013-03-22 20:10:00,36.8,17.4,29.77,SW,227,0.0,0.0,45,0.00,CLR,CLR,0.00,WeatherDisplay:10.36,2013-03-23 00:10:00,
2013-03-22 20:15:00,36.6,17.2,29.77,SW,227,0.0,0.0,45,0.00,CLR,CLR,0.00,WeatherDisplay:10.36,2013-03-23 00:15:00,
2013-03-22 20:20:00,36.5,17.7,29.77,WSW,237,2.0,2.0,46,0.00,CLR,CLR,0.00,WeatherDisplay:10.36,2013-03-23 00:20:00,
2013-03-22 20:25:00,36.5,17.7,29.77,SW,226,1.2,1.2,46,0.00,CLR,CLR,0.00,WeatherDisplay:10.36,2013-03-23 00:25:00,
2013-03-22 20:30:00,36.5,17.7,29.78,SSW,192,1.2,1.2,46,0.00,CLR,CLR,0.00,WeatherDisplay:10.36,2013-03-23 00:30:00,
2013-03-22 20:35:00,36.5,17.7,29.78,SSW,208,0.0,0.0,46,0.00,CLR,CLR,0.00,WeatherDisplay:10.36,2013-03-23 00:35:00,
2013-03-22 20:41:00,36.5,17.7,29.78,SSW,208,1.2,0.0,46,0.00,CLR,CLR,0.00,WeatherDisplay:10.36,2013-03-23 00:41:00,
2013-03-22 20:46:00,36.3,18.0,29.78,SSW,208,1.2,0.0,47,0.00,CLR,CLR,0.00,WeatherDisplay:10.36,2013-03-23 00:46:00,
2013-03-22 20:51:00,36.2,17.9,29.78,SSW,208,1.2,0.0,47,0.00,CLR,CLR,0.00,WeatherDisplay:10.36,2013-03-23 00:51:00,
2013-03-22 20:57:00,36.0,18.2,29.78,SSW,208,0.0,0.0,48,0.00,CLR,CLR,0.00,WeatherDisplay:10.36,2013-03-23 00:57:00,
2013-03-22 21:02:00,35.9,18.1,29.78,SSW,208,0.0,0.0,48,0.00,CLR,CLR,0.00,WeatherDisplay:10.36,2013-03-23 01:02:00,
2013-03-22 21:07:00,35.8,18.0,29.78,SSW,208,0.0,0.0,48,0.00,CLR,CLR,0.00,WeatherDisplay:10.36,2013-03-23 01:07:00,
2013-03-22 21:12:00,35.8,18.0,29.78,SSW,208,0.0,0.0,48,0.00,CLR,CLR,0.00,WeatherDisplay:10.36,2013-03-23 01:12:00,
2013-03-22 21:17:00,35.8,18.5,29.78,SSW,208,0.0,0.1,49,0.00,CLR,CLR,0.00,WeatherDisplay:10.36,2013-03-23 01:17:00,
2013-03-22 21:23:00,35.6,18.3,29.78,SSW,210,0.0,0.0,49,0.00,CLR,CLR,0.00,WeatherDisplay:10.36,2013-03-23 01:23:00,
2013-03-22 21:28:00,35.5,18.2,29.79,SW,227,3.5,3.5,49,0.00,CLR,CLR,0.00,WeatherDisplay:10.36,2013-03-23 01:28:00,
2013-03-22 21:33:00,35.5,18.7,29.79,SW,219,3.5,3.5,50,0.00,CLR,CLR,0.00,WeatherDisplay:10.36,2013-03-23 01:33:00,
2013-03-22 21:38:00,35.5,18.7,29.79,SW,219,1.2,1.2,50,0.00,CLR,CLR,0.00,WeatherDisplay:10.36,2013-03-23 01:38:00,
2013-03-22 21:43:00,35.3,18.5,29.79,SW,219,1.0,1.0,50,0.00,CLR,CLR,0.00,WeatherDisplay:10.36,2013-03-23 01:43:00,
2013-03-22 21:48:00,35.3,19.0,29.79,SW,219,1.0,1.0,51,0.00,CLR,CLR,0.00,WeatherDisplay:10.36,2013-03-23 01:48:00,
2013-03-22 21:53:00,35.2,18.9,29.79,SW,219,0.0,0.0,51,0.00,CLR,CLR,0.00,WeatherDisplay:10.36,2013-03-23 01:53:00,
2013-03-22 21:59:00,35.0,19.1,29.79,SW,219,0.0,0.0,52,0.00,CLR,CLR,0.00,WeatherDisplay:10.36,2013-03-23 01:59:00,
2013-03-22 22:04:00,35.0,19.6,29.79,SW,229,3.5,3.5,53,0.00,CLR,CLR,0.00,WeatherDisplay:10.36,2013-03-23 02:04:00,
2013-03-22 22:09:00,35.0,19.6,29.79,SW,221,1.2,0.0,53,0.00,CLR,CLR,0.00,WeatherDisplay:10.36,2013-03-23 02:09:00,
2013-03-22 22:14:00,35.0,20.0,29.79,SW,221,1.2,0.0,54,0.00,CLR,CLR,0.00,WeatherDisplay:10.36,2013-03-23 02:14:00,
2013-03-22 22:20:00,35.0,20.0,29.79,SW,221,1.2,0.0,54,0.00,CLR,CLR,0.00,WeatherDisplay:10.36,2013-03-23 02:20:00,
2013-03-22 22:25:00,34.9,19.9,29.79,SW,221,0.0,0.0,54,0.00,CLR,CLR,0.00,WeatherDisplay:10.36,2013-03-23 02:25:00,
2013-03-22 22:30:00,34.9,20.4,29.79,SW,221,0.0,0.0,55,0.00,CLR,CLR,0.00,WeatherDisplay:10.36,2013-03-23 02:30:00,
2013-03-22 22:35:00,34.6,20.1,29.79,SW,221,0.0,0.0,55,0.00,CLR,CLR,0.00,WeatherDisplay:10.36,2013-03-23 02:35:00,
2013-03-22 22:40:00,34.4,19.9,29.79,SW,221,1.2,1.2,55,0.00,CLR,CLR,0.00,WeatherDisplay:10.36,2013-03-23 02:40:00,
2013-03-22 22:45:00,34.3,19.8,29.79,WSW,253,3.5,3.5,55,0.00,CLR,CLR,0.00,WeatherDisplay:10.36,2013-03-23 02:45:00,
2013-03-22 22:50:00,34.3,19.8,29.79,SW,215,2.0,2.0,55,0.00,CLR,CLR,0.00,WeatherDisplay:10.36,2013-03-23 02:50:00,
2013-03-22 22:55:00,34.1,20.4,29.80,SSW,200,1.2,1.2,57,0.00,CLR,CLR,0.00,WeatherDisplay:10.36,2013-03-23 02:55:00,
2013-03-22 23:01:00,34.1,20.4,29.80,SSW,200,0.0,0.0,57,0.00,CLR,CLR,0.00,WeatherDisplay:10.36,2013-03-23 03:01:00,
2013-03-22 23:06:00,34.0,20.3,29.80,SSW,203,1.2,1.2,57,0.00,CLR,CLR,0.00,WeatherDisplay:10.36,2013-03-23 03:06:00,
2013-03-22 23:11:00,34.0,20.8,29.80,SSW,203,1.0,0.0,58,0.00,CLR,CLR,0.00,WeatherDisplay:10.36,2013-03-23 03:11:00,
2013-03-22 23:16:00,34.0,20.8,29.80,SSW,203,1.2,1.2,58,0.00,CLR,CLR,0.00,WeatherDisplay:10.36,2013-03-23 03:16:00,
2013-03-22 23:22:00,34.0,21.2,29.80,SSW,203,0.0,0.0,59,0.00,CLR,CLR,0.00,WeatherDisplay:10.36,2013-03-23 03:22:00,
2013-03-22 23:27:00,34.1,20.9,29.80,SSW,204,1.2,0.0,58,0.00,CLR,CLR,0.00,WeatherDisplay:10.36,2013-03-23 03:27:00,
2013-03-22 23:32:00,34.1,20.9,29.80,SSW,204,0.0,0.0,58,0.00,CLR,CLR,0.00,WeatherDisplay:10.36,2013-03-23 03:32:00,
2013-03-22 23:37:00,34.3,21.0,29.80,SSW,204,0.0,0.0,58,0.00,CLR,CLR,0.00,WeatherDisplay:10.36,2013-03-23 03:37:00,
2013-03-22 23:42:00,34.3,21.0,29.80,SW,230,3.0,3.0,58,0.00,CLR,CLR,0.00,WeatherDisplay:10.36,2013-03-23 03:42:00,
2013-03-22 23:47:00,34.4,21.1,29.80,SW,227,0.0,0.0,58,0.00,CLR,CLR,0.00,WeatherDisplay:10.36,2013-03-23 03:47:00,
2013-03-22 23:52:00,34.4,21.1,29.80,SW,227,0.0,0.0,58,0.00,CLR,CLR,0.00,WeatherDisplay:10.36,2013-03-23 03:52:00,
2013-03-22 23:57:00,34.4,21.1,29.80,SW,233,3.5,3.5,58,0.00,CLR,CLR,0.00,WeatherDisplay:10.36,2013-03-23 03:57:00,